Overview Statistics Trail Chart Weather Telemetry Raw packets
 

This is the latest recevied weather packets stored in our database for station/object IU5JAE-13. If no packets are shown the sender has not sent any weather packets the latest 10 day(s).

<< 44 45 46 47 48 49 50 >>
Time Temp. Humidity Pressure Rain* Wind** Luminosity Snow
1788033633 20° C 60% 1017.6 hPa 0 mm - 0 W/m² -
1788033031 20° C 60% 1017.6 hPa 0 mm - 0 W/m² -
1788032428 20° C 61% 1017.6 hPa 0 mm - 0 W/m² -
1788031826 20.56° C 59% 1017.7 hPa 0 mm - 0 W/m² -
1788031223 20.56° C 58% 1017.4 hPa 0 mm - 0 W/m² -
1788030621 21.11° C 56% 1017.3 hPa 0 mm - 0 W/m² -
1788030019 21.11° C 54% 1017.2 hPa 0 mm - 0 W/m² -
1788029416 21.11° C 52% 1017.1 hPa 0 mm - 0 W/m² -
1788028834 21.11° C 49% 1017 hPa 0 mm - 0 W/m² -
1788028231 21.67° C 48% 1016.9 hPa 0 mm - 0 W/m² -
1788027629 21.11° C 51% 1016.9 hPa 0 mm - 0 W/m² -
1788027026 21.11° C 56% 1016.9 hPa 0 mm - 1 W/m² -
1788026424 21.11° C 58% 1016.8 hPa 0 mm - 3 W/m² -
1788025822 21.11° C 62% 1016.8 hPa 0 mm - 7 W/m² -
1788025219 21.67° C 61% 1016.8 hPa 0 mm - 13 W/m² -
1788024617 21.67° C 61% 1016.8 hPa 0 mm - 24 W/m² -
1788024035 22.22° C 60% 1016.8 hPa 0 mm - 28 W/m² -
1788023433 22.22° C 60% 1016.7 hPa 0 mm - 27 W/m² -
1788022830 22.78° C 57% 1016.7 hPa 0 mm - 32 W/m² -
1788022227 23.33° C 54% 1016.7 hPa 0 mm - 52 W/m² -
1788021625 23.33° C 53% 1016.8 hPa 0 mm - 68 W/m² -
1788021022 23.89° C 50% 1016.9 hPa 0 mm - 66 W/m² -
1788020420 25° C 47% 1016.8 hPa 0 mm - 63 W/m² -
1788019818 26.67° C 43% 1016.8 hPa 0 mm - 75 W/m² -
1788019235 26.67° C 41% 1016.8 hPa 0 mm - 129 W/m² -

* Rain latest hour (hover to see other rain measurements)
** Current wind speed in m/s (hover to see current wind gust speed)